Regional Weather Roundup
Issued by NWS Northern Indiana

Home | Current Version | Previous Version | Text Only | Print | Product List | Glossary Off
Versions: 1 2 3 4 5 6 7 8 9 10 11 12 13 14 15 16 17 18 19 20 21 22 23 24 25 26 27 28 29 30 31 32 33 34 35 36 37 38 39 40 41 42 43 44 45 46 47 48 49 50

000
ASUS43 KIWX 301110
RWRIWX

KIWX WEATHER ROUNDUP
NATIONAL WEATHER SERVICE NORTHERN INDIANA
700 AM EDT TUE SEP 30 2014

NOTE: "FAIR" INDICATES FEW OR NO CLOUDS BELOW 12,000 FEET WITH NO
SIGNIFICANT WEATHER AND/OR OBSTRUCTIONS TO VISIBILITY.

* THESE STATIONS ARE NOT UNDER NWS QUALITY CONTROL. THEY ALSO MAY NOT
  REPORT WEATHER SUCH AS PRECIPITATION OR FOG.

INZ001>027-301200-
NORTHERN INDIANA

CITY           SKY/WX    TMP DP  RH WIND       PRES   REMARKS
GARY*          CLOUDY    54  50  87 N17       30.03S
VALPARAISO     CLOUDY    53  48  83 VRB6      30.02R
MICHIGAN CITY* CLOUDY    52  45  76 N10G16    30.02S
LAPORTE*       LGT RAIN  53  52  98 N10G18    30.01S
KNOX*          CLOUDY    52  47  84 N14       30.01R
SOUTH BEND     NOT AVBL
ELKHART*       CLOUDY    48  45  87 N8        30.00
MONTICELLO*    CLOUDY    54  52  92 N8        29.99S
LOGANSPORT*    CLOUDY    54  50  87 N10       29.99S
ROCHESTER*     CLOUDY    54  50  87 NW10      30.00R
WARSAW*        CLOUDY    50  48  93 NW7       29.99R
ANGOLA*        CLOUDY    50  48  93 N7        29.97R
FORT WAYNE     CLOUDY    55  53  93 N10       29.96R
HUNTINGTON*    CLOUDY    55  55  99 NW6       29.96R FOG
PERU/GRISSOM   CLOUDY    55  55 100 N12       29.98R
MARION*        CLOUDY    56  53  89 N7        29.97R

$$
INZ028>050-301200-
CENTRAL INDIANA

CITY           SKY/WX    TMP DP  RH WIND       PRES   REMARKS
LAFAYETTE      CLOUDY    55  51  86 N10       30.00R
KOKOMO*        CLOUDY    55  52  88 NW9       29.99R
MUNCIE*        CLOUDY    58  57  97 NW8       29.96R FOG
INDIANAPOLIS   CLOUDY    58  57  97 N15       29.96R FOG

$$
MIZ043>046-050>051-056>058-064>065-071>073-077>080-301200-
SOUTHWEST LOWER MICHIGAN

CITY           SKY/WX    TMP DP  RH WIND       PRES   REMARKS
BATTLE CREEK   CLOUDY    48  45  89 NW7       29.99S
COLDWATER*     CLOUDY    50  48  95 N8        29.97S
HILLSDALE*     CLOUDY    49  49 100 N10       29.96R
HOLLAND        MOCLDY    48  45  89 VRB3      30.03R
GRAND RAPIDS   CLOUDY    49  47  93 N10       30.00S
KALAMAZOO      CLOUDY    48  45  89 N14       30.00S FOG
STURGIS*       CLOUDY    48  46  93 NW10      29.98R FOG
THREE RIVERS*  LGT RAIN  49  47  93 N6        30.00R

$$
OHZ001>008-015>018-024>025-301200-
NORTHWEST OHIO

CITY           SKY/WX    TMP DP  RH WIND       PRES   REMARKS
WAUSEON*       CLOUDY    52  52 100 N12G18    29.95R FOG
DEFIANCE       CLOUDY    57  51  80 N12       29.95R
FINDLAY        HVY RAIN  60  58  92 N7        29.91S FOG
TOLEDO EXPRESS CLOUDY    53  52  96 N9        29.94R
TOLEDO METCALF CLOUDY    56  52  86 NW10      29.93R
LIMA           LGT RAIN  61  58  90 N3        29.91F FOG

$$
AND FOR LAKE MICHIGAN COASTAL AND OPEN LAKE BUOY OBSERVATIONS

STATION/POSITION TEMP    WIND        PRES    VSBY  WAVE
                 AIR SEA DIR/SP/G                  HT/PER
                 (F)     (DEG/KT/KT) (MB)    (MI)  (FT/S)
CALUMET HARBOR    54     360/ 11/ 14 1015.8S
MICHIGAN CITY     54     350/ 22/ 26   N/A
SAINT JOSEPH      54     360/ 10/ 21 1016.6F
SOUTH LAKE BUOY   51 61  350/ 16/ 21 1016.9R         7/ 8
4 MI NW BRIDGMAN  54 62  360/ 17/ 23   N/A           7/ 2
MICHIGAN CITY     55 65   10/ 16/ 19   N/A           7/ 2

$$
&&


USA.gov is the U.S. government's official web portal to all federal, state and local government web resources and services.